When you browse on this site, cookies collect data to enhance your experience and personalize the content and advertising you see.
Visit our Privacy Policy to learn more. By continuing to use the site, you agree to this use of cookies and data.
EN

Hourly Weather Gümüşhacıköy

Today, 5 July, Sunday

Time Temperature Precipitation Wind Pressure Humidity
00:00 +20°C° 0 mm 1 mps 688 mmHg 86%
01:00 +20°C° 0 mm 1 mps 688 mmHg 85%
02:00 +20°C° 0 mm 1 mps 688 mmHg 85%
03:00 +20°C° 0 mm 1 mps 687 mmHg 85%
04:00 +20°C° 0 mm 1 mps 687 mmHg 84%
05:00 +19°C° 0 mm 1 mps 687 mmHg 84%
06:00 +21°C° 0 mm 1 mps 688 mmHg 76%
07:00 +23°C° 0 mm 1 mps 688 mmHg 68%
08:00 +25°C° 0 mm 2 mps 688 mmHg 59%
09:00 +27°C° 0 mm 2 mps 688 mmHg 54%
10:00 +28°C° 0 mm 2 mps 688 mmHg 49%
11:00 +29°C° 0 mm 3 mps 689 mmHg 43%
12:00 +30°C° 0 mm 3 mps 688 mmHg 41%
13:00 +30°C° 0 mm 3 mps 688 mmHg 40%
14:00 +32°C° 0 mm 4 mps 688 mmHg 38%
15:00 +30°C° 0 mm 4 mps 688 mmHg 42%
16:00 +29°C° 0 mm 4 mps 688 mmHg 46%
17:00 +28°C° 0 mm 5 mps 687 mmHg 51%
18:00 +26°C° 0 mm 4 mps 687 mmHg 60%
19:00 +24°C° 0 mm 3 mps 687 mmHg 70%
20:00 +20°C° 0 mm 2 mps 687 mmHg 79%
21:00 +20°C° 0 mm 2 mps 687 mmHg 80%
22:00 +20°C° 0 mm 1 mps 687 mmHg 81%
23:00 +20°C° 0 mm 1 mps 687 mmHg 82%

Tomorrow, 6 July, Monday

Time Temperature Precipitation Wind Pressure Humidity
00:00 +20°C° 0 mm 1 mps 686 mmHg 82%
01:00 +19°C° 0 mm 1 mps 686 mmHg 82%
02:00 +19°C° 0 mm 1 mps 686 mmHg 81%
03:00 +19°C° 0 mm 1 mps 686 mmHg 81%
04:00 +19°C° 0 mm 1 mps 686 mmHg 81%
05:00 +19°C° 0 mm 1 mps 686 mmHg 81%
06:00 +21°C° 0 mm 1 mps 686 mmHg 73%
07:00 +23°C° 0 mm 1 mps 686 mmHg 66%
08:00 +25°C° 0 mm 2 mps 686 mmHg 59%
09:00 +27°C° 0 mm 2 mps 686 mmHg 55%
10:00 +28°C° 0 mm 3 mps 686 mmHg 51%
11:00 +30°C° 0 mm 4 mps 686 mmHg 47%
12:00 +30°C° 0 mm 4 mps 686 mmHg 47%
13:00 +30°C° 0 mm 5 mps 686 mmHg 46%
14:00 +32°C° 0 mm 5 mps 685 mmHg 46%
15:00 +30°C° 0 mm 5 mps 685 mmHg 50%
16:00 +29°C° 0 mm 5 mps 685 mmHg 54%
17:00 +28°C° 0 mm 5 mps 685 mmHg 58%
18:00 +26°C° 0 mm 3 mps 684 mmHg 66%
19:00 +24°C° 0 mm 2 mps 684 mmHg 74%
20:00 +22°C° 0 mm 1 mps 684 mmHg 82%
21:00 +22°C° 0 mm 1 mps 684 mmHg 83%
22:00 +21°C° 0 mm 1 mps 684 mmHg 85%
23:00 +18°C° 0 mm 0 mps 684 mmHg 86%

Day after tomorrow, 7 July, Tuesday

Time Temperature Precipitation Wind Pressure Humidity
00:00 +18°C° 0 mm 0 mps 683 mmHg 86%
01:00 +18°C° 0 mm 0 mps 683 mmHg 86%
02:00 +17°C° 0 mm 0 mps 683 mmHg 85%
03:00 +18°C° 0 mm 0 mps 683 mmHg 85%
04:00 +18°C° 0 mm 0 mps 683 mmHg 84%
05:00 +18°C° 0 mm 0 mps 683 mmHg 83%
06:00 +20°C° 0 mm 0 mps 683 mmHg 75%
07:00 +22°C° 0 mm 0 mps 684 mmHg 66%
08:00 +24°C° 0 mm 0 mps 684 mmHg 58%
09:00 +28°C° 0 mm 1 mps 684 mmHg 50%
10:00 +30°C° 0 mm 1 mps 684 mmHg 43%
11:00 +32°C° 0 mm 1 mps 685 mmHg 35%
12:00 +33°C° 0 mm 1 mps 685 mmHg 33%
13:00 +33°C° 0 mm 1 mps 685 mmHg 30%
14:00 +34°C° 0 mm 1 mps 685 mmHg 27%
15:00 +35°C° 0 mm 2 mps 684 mmHg 30%
16:00 +34°C° 0 mm 2 mps 684 mmHg 33%
17:00 +33°C° 0 mm 3 mps 684 mmHg 37%
18:00 +30°C° 0.2 mm 2 mps 684 mmHg 47%
19:00 +27°C° 0.2 mm 2 mps 684 mmHg 58%
20:00 +24°C° 0.2 mm 1 mps 684 mmHg 69%
21:00 +24°C° 0 mm 1 mps 684 mmHg 71%
22:00 +23°C° 0 mm 1 mps 684 mmHg 72%
23:00 +22°C° 0 mm 1 mps 684 mmHg 74%

8 July, Wednesday

Time Temperature Precipitation Wind Pressure Humidity
00:00 +22°C° 0 mm 1 mps 684 mmHg 75%
01:00 +22°C° 0 mm 1 mps 684 mmHg 76%
02:00 +21°C° 0 mm 1 mps 684 mmHg 77%
03:00 +21°C° 0 mm 1 mps 685 mmHg 78%
04:00 +21°C° 0 mm 1 mps 685 mmHg 80%
05:00 +21°C° 0 mm 1 mps 685 mmHg 81%
06:00 +23°C° 0 mm 1 mps 685 mmHg 74%
07:00 +25°C° 0 mm 1 mps 686 mmHg 67%
08:00 +26°C° 0 mm 1 mps 686 mmHg 60%
09:00 +28°C° 0 mm 2 mps 686 mmHg 55%
10:00 +29°C° 0 mm 2 mps 686 mmHg 50%
11:00 +31°C° 0 mm 3 mps 687 mmHg 45%
12:00 +32°C° 0 mm 4 mps 687 mmHg 44%
13:00 +33°C° 0 mm 5 mps 687 mmHg 43%
14:00 +33°C° 0 mm 6 mps 687 mmHg 42%
15:00 +30°C° 0.1 mm 5 mps 687 mmHg 48%
16:00 +29°C° 0.1 mm 4 mps 687 mmHg 54%
17:00 +27°C° 0.1 mm 3 mps 687 mmHg 60%
18:00 +26°C° 0.1 mm 2 mps 687 mmHg 66%
19:00 +24°C° 0.1 mm 2 mps 687 mmHg 72%
20:00 +22°C° 0.1 mm 1 mps 687 mmHg 78%
21:00 +22°C° 0 mm 1 mps 687 mmHg 79%
22:00 +21°C° 0 mm 1 mps 687 mmHg 79%
23:00 +21°C° 0 mm 1 mps 687 mmHg 80%

9 July, Thursday

Time Temperature Precipitation Wind Pressure Humidity
00:00 +21°C° 0 mm 1 mps 687 mmHg 81%
01:00 +20°C° 0 mm 1 mps 687 mmHg 81%
02:00 +20°C° 0 mm 1 mps 687 mmHg 82%
03:00 +20°C° 0 mm 1 mps 687 mmHg 82%
04:00 +20°C° 0 mm 1 mps 687 mmHg 82%
05:00 +19°C° 0 mm 1 mps 687 mmHg 82%
06:00 +20°C° 0 mm 2 mps 687 mmHg 74%
07:00 +23°C° 0 mm 2 mps 688 mmHg 65%
08:00 +25°C° 0 mm 3 mps 688 mmHg 57%
09:00 +26°C° 0 mm 4 mps 688 mmHg 54%
10:00 +27°C° 0 mm 4 mps 689 mmHg 52%
11:00 +28°C° 0 mm 5 mps 689 mmHg 49%
12:00 +29°C° 0 mm 6 mps 689 mmHg 49%
13:00 +29°C° 0 mm 6 mps 688 mmHg 48%
14:00 +30°C° 0 mm 7 mps 688 mmHg 48%
15:00 +28°C° 0 mm 6 mps 688 mmHg 52%
16:00 +27°C° 0 mm 6 mps 688 mmHg 57%
17:00 +26°C° 0 mm 6 mps 688 mmHg 61%
18:00 +23°C° 0 mm 5 mps 688 mmHg 69%
19:00 +21°C° 0 mm 4 mps 688 mmHg 78%
20:00 +19°C° 0 mm 3 mps 688 mmHg 86%
21:00 +19°C° 0 mm 2 mps 688 mmHg 89%
22:00 +18°C° 0 mm 2 mps 689 mmHg 91%
23:00 +17°C° 0 mm 2 mps 689 mmHg 94%

10 July, Friday

Time Temperature Precipitation Wind Pressure Humidity
00:00 +17°C° 0 mm 2 mps 689 mmHg 94%
01:00 +17°C° 0 mm 2 mps 689 mmHg 94%
02:00 +17°C° 0 mm 2 mps 689 mmHg 94%
03:00 +17°C° 0 mm 2 mps 689 mmHg 93%
04:00 +17°C° 0 mm 2 mps 689 mmHg 91%
05:00 +17°C° 0 mm 2 mps 689 mmHg 89%
06:00 +18°C° 0 mm 2 mps 689 mmHg 87%
07:00 +19°C° 0 mm 2 mps 689 mmHg 84%
08:00 +19°C° 0 mm 3 mps 689 mmHg 81%
09:00 +20°C° 0 mm 3 mps 690 mmHg 77%
10:00 +22°C° 0 mm 4 mps 690 mmHg 73%
11:00 +23°C° 0 mm 5 mps 690 mmHg 69%
12:00 +25°C° 0 mm 5 mps 690 mmHg 67%
13:00 +24°C° 0 mm 6 mps 690 mmHg 65%
14:00 +26°C° 0 mm 6 mps 690 mmHg 63%
15:00 +24°C° 0.1 mm 6 mps 690 mmHg 67%
16:00 +23°C° 0.1 mm 6 mps 690 mmHg 71%
17:00 +22°C° 0.1 mm 5 mps 690 mmHg 75%
18:00 +21°C° 0.1 mm 4 mps 690 mmHg 80%
19:00 +19°C° 0.1 mm 4 mps 690 mmHg 86%
20:00 +18°C° 0.1 mm 3 mps 690 mmHg 91%
21:00 +17°C° 0 mm 2 mps 690 mmHg 92%
22:00 +17°C° 0 mm 2 mps 690 mmHg 93%
23:00 +16°C° 0 mm 2 mps 690 mmHg 94%
Show more